Погода в Усть-Каменогорске

Казахстан     49°56′55″N   82°37′42″E
темп.,
°C
ветер,
м/с
пор.,
м/с
влажн.,
%
обл.,
%
осадки,
мм/ч
давл.,
гПа
погр.,
м
25 февраля, чт
чт2500:00−2юз2792100 1.7 1016223
03:00−8з3397100 0.5 1016105
06:00−10з4696100 2.8 1019383
09:00−12зсз0195100 1.0 1025194
12:00−14юз5872100 1.4 10281211
15:00−13юз61171100 0.0 10301538
18:00−15ю3788100 0.1 1032291
21:00−15ю41092100 0.4 1033587
26 февраля, пт
пт2600:00−16юз51293100 0.7 10331010
03:00−20зюз4892100 0.3 1036367
06:00−23юз1191100 0.3 104020
09:00−23ююв228999 0.0 1042102
12:00−19ю367499 0.0 1042807
15:00−17ююз2570100 0.0 1041919
18:00−19ююз1197100 0.1 104120
21:00−20юв2289100 0.1 104323
27 февраля, сб
сб2700:00−22юв2285100 0.1 104321
03:00−23юв128697 0.0 104320
06:00−25юв118981 0.0 104220
09:00−22юв128962 0.0 104243
12:00−15ююв267979 0.0 1040445
15:00−13юв477693 0.0 1039616
18:00−17юв338096 0.0 103927
21:00−18юв3382100 0.0 104047
28 февраля, вс
вс2800:00−17юв3381100 0.0 104045
03:00−17юв3380100 0.0 103949
06:00−17юв3580100 0.0 103975
09:00−14юв4117799 0.0 1039359
12:00−10юв71568100 0.0 1036585
15:00−9юв71566100 0.0 1033607
18:00−10юв61668100 0.0 1031495
21:00−9юв61668100 0.0 1030483
1 марта, пн
пн100:00−9юв51571100 0.1 1029478
03:00−9юв41475100 0.4 1028492
06:00−8вюв51380100 0.6 1027450
09:00−7юв41278100 0.1 1026438
12:00−5юв51273100 0.1 1025495
15:00−4юв61273100 0.1 1024618
18:00−6юв61389100 0.4 1023491
21:00−6юв41094100 1.6 1023417